Stations météo

Publicité
Angers, France (7230): Température de l'air & dewpoint: 12.08.2018 00:00:00 - 18.08.2018 00:00:00 (CEST)Angers, France (7230): Température de l'air 5cm: 12.08.2018 00:00:00 - 18.08.2018 00:00:00 (CEST)Angers, France (7230): Température de l'air -20cm: 12.08.2018 00:00:00 - 18.08.2018 00:00:00 (CEST)Angers, France (7230): Vitesse du vent & gusts: 12.08.2018 00:00:00 - 18.08.2018 00:00:00 (CEST)Angers, France (7230): Direction du vent: 12.08.2018 00:00:00 - 18.08.2018 00:00:00 (CEST)Angers, France (7230): reduced air pressure: 12.08.2018 00:00:00 - 18.08.2018 00:00:00 (CEST)Angers, France (7230): visibility: 12.08.2018 00:00:00 - 18.08.2018 00:00:00 (CEST)Angers, France (7230): Ensoleillement: 12.08.2018 00:00:00 - 18.08.2018 00:00:00 (CEST)Angers, France (7230): Quantités de précipitations: 12.08.2018 00:00:00 - 18.08.2018 00:00:00 (CEST)
Date & Time tt [°C] td [°C] tt 5cm [°C] tt -20cm [°C] ff [km/h] ff [knt] fx [km/h] fx [knt] dd ppp [hPa] vv [km] sd [min] rr [mm]
18.08.2018 00:00:00 14,8 9,8 12,7 22,3 6 3 13 7 NNW 1024,8 20 0 0,0
17.08.2018 23:00:00 16,2 10,1 15,0 22,5 8 5 21 11 NNW 1024,5 20 0 0,0
17.08.2018 22:00:00 17,7 10,3 16,4 22,7 11 6 23 12 NNW 1023,9 20 0 0,0
17.08.2018 21:00:00 19,7 10,4 18,9 22,8 15 8 27 15 NNW 1023,1 20 47 0,0
17.08.2018 20:00:00 22,2 10,7 22,9 22,9 13 7 24 13 NNW 1022,2 20 52 0,0
17.08.2018 19:00:00 21,8 10,9 21,9 22,8 8 5 26 14 N 1021,9 20 10 0,0
17.08.2018 18:00:00 23,9 10,2 29,0 22,5 13 7 30 16 N 1021,8 20 60 0,0
17.08.2018 17:00:00 24,2 10,1 24,2 22,2 12 6 26 14 NNW 1022,1 20 46 0,0
17.08.2018 16:00:00 23,3 9,7 24,3 21,8 12 7 23 13 NNW 1022,5 20 46 0,0
17.08.2018 15:00:00 22,2 10,3 23,1 21,4 13 7 28 15 NNW 1022,7 20 40 0,0
17.08.2018 14:00:00 21,2 10,4 22,5 21,1 15 8 23 12 N 1022,9 20 29 0,0
17.08.2018 13:00:00 20,8 11,4 21,9 20,9 13 7 25 14 N 1023,1 20 43 0,0
17.08.2018 12:00:00 19,7 10,9 21,0 20,8 14 7 24 13 N 1023,1 20 36 0,0
17.08.2018 11:00:00 19,1 12,1 21,6 20,8 14 8 27 15 N 1022,8 20 60 0,0
17.08.2018 10:00:00 16,8 13,1 18,2 20,8 11 6 18 10 NNW 1022,3 20 60 0,0
17.08.2018 09:00:00 14,4 12,6 14,1 21,0 8 4 16 8 N 1022,0 20 60 0,0
17.08.2018 08:00:00 12,2 11,7 10,6 21,2 5 3 14 7 NW 1021,4 20 18 0,0
17.08.2018 07:00:00 11,6 11,3 10,6 21,4 9 5 13 7 WNW 1020,7 20 0 0,0
17.08.2018 06:00:00 11,9 11,4 10,8 21,6 6 4 13 7 WNW 1020,2 20 0 0,0
17.08.2018 05:00:00 12,6 12,0 11,7 21,8 6 4 12 6 WNW 1019,9 20 0 0,0
17.08.2018 04:00:00 13,6 12,8 12,5 22,1 6 4 19 10 NW 1019,7 20 0 0,0
17.08.2018 03:00:00 14,7 13,4 14,1 22,3 9 5 26 14 NW 1019,2 20 0 0,0
17.08.2018 02:00:00 15,0 13,7 14,2 22,5 9 5 19 10 NW 1018,9 20 0 0,2
17.08.2018 01:00:00 15,7 12,8 15,5 22,6 11 6 23 13 NNW 1018,8 20 0 0,0
17.08.2018 00:00:00 16,0 13,8 15,9 22,9 13 7 36 19 NNW 1018,4 20 0 0,0
16.08.2018 23:00:00 17,0 14,1 16,8 23,1 18 10 33 18 NNW 1017,7 20 0 0,0
16.08.2018 22:00:00 17,5 14,2 17,3 23,3 19 10 41 22 NNW 1017,2 20 0 0,0
16.08.2018 21:00:00 20,1 16,1 19,8 23,4 21 12 40 22 NNW 1015,9 20 29 0,0
16.08.2018 20:00:00 24,1 15,0 24,2 23,4 14 8 26 14 WNW 1014,7 20 40 0,0
16.08.2018 19:00:00 25,8 15,2 28,4 23,2 16 9 29 16 WNW 1014,6 20 60 0,0
16.08.2018 18:00:00 25,6 16,2 28,0 23,0 16 9 29 16 WNW 1014,7 20 50 0,0
16.08.2018 17:00:00 27,1 17,0 28,1 22,7 18 10 31 17 NW 1014,8 20 47 0,0
16.08.2018 16:00:00 27,4 16,4 28,0 22,3 14 8 25 14 WNW 1014,9 20 26 0,0
16.08.2018 15:00:00 26,3 16,0 28,0 21,8 14 8 29 16 WNW 1015,2 20 33 0,0
16.08.2018 14:00:00 27,5 16,5 31,3 21,3 10 5 30 16 W 1015,4 20 58 0,0
16.08.2018 13:00:00 26,4 15,4 32,4 20,9 6 3 14 7 NW 1015,6 20 60 0,0
16.08.2018 12:00:00 25,5 15,8 31,2 20,7 5 3 13 7 S 1016,0 20 60 0,0
16.08.2018 11:00:00 23,9 15,4 26,2 20,5 3 2 10 6 SSE 1016,7 20 60 0,0
16.08.2018 10:00:00 20,4 16,2 21,8 20,4 3 2 7 4 NE 1016,8 20 60 0,0
16.08.2018 09:00:00 16,6 16,3 14,9 20,5 3 2 6 3 NNW 1017,0 19 60 0,0
16.08.2018 08:00:00 13,5 13,3 8,5 20,7 0 0 3 1 N 1017,2 16 19 0,0
16.08.2018 07:00:00 12,8 12,5 8,3 20,9 0 0 3 1 N 1017,3 1,3 0 0,2
16.08.2018 06:00:00 13,3 13,0 8,7 21,2 0 0 3 1 N 1017,3 10 0 0,0
16.08.2018 05:00:00 13,6 13,3 9,1 21,4 0 0 0 0 N 1017,5 6 0 0,0
16.08.2018 04:00:00 14,4 14,1 9,4 21,6 0 0 3 2 N 1017,8 20 0 0,0
16.08.2018 03:00:00 14,7 14,2 9,9 21,8 3 1 4 2 NNE 1018,3 2,4 0 0,0
16.08.2018 02:00:00 15,2 14,6 10,7 22,1 0 0 2 1 N 1018,7 20 0 0,0
16.08.2018 01:00:00 16,0 14,9 11,5 22,3 0 0 0 0 N 1019,0 20 0 0,0
16.08.2018 00:00:00 17,2 15,2 12,5 22,6 0 0 0 0 N 1019,3 20 0 0,0
15.08.2018 23:00:00 18,0 15,3 12,8 22,8 0 0 2 1 N 1019,4 20 0 0,0
15.08.2018 22:00:00 20,1 14,9 14,1 23,0 0 0 4 2 N 1019,3 14 0 0,0
15.08.2018 21:00:00 22,8 15,6 19,8 23,0 4 2 7 4 NE 1019,1 20 50 0,0
15.08.2018 20:00:00 25,2 15,8 28,3 23,0 4 2 11 6 NNE 1019,2 20 60 0,0
15.08.2018 19:00:00 26,5 15,2 30,4 22,7 4 2 13 7 WNW 1019,5 20 60 0,0
15.08.2018 18:00:00 26,0 15,1 31,2 22,4 6 3 16 9 N 1020,0 20 60 0,0
15.08.2018 17:00:00 25,6 15,3 32,2 22,0 7 4 15 8 N 1020,6 20 60 0,0
15.08.2018 16:00:00 25,0 15,0 27,9 21,6 9 5 20 11 NNW 1021,3 20 53 0,0
15.08.2018 15:00:00 23,8 14,8 26,7 21,3 8 4 16 9 NNW 1022,0 20 18 0,0
15.08.2018 14:00:00 22,5 14,6 25,6 21,0 5 3 18 10 N 1022,3 20 4 0,0
15.08.2018 13:00:00 21,4 14,8 24,3 20,8 9 5 19 11 NE 1022,7 20 0 0,0
15.08.2018 12:00:00 20,6 15,2 22,4 20,7 8 4 16 8 NNE 1023,1 20 0 0,0
15.08.2018 11:00:00 19,2 15,9 20,6 20,6 5 3 11 6 NNE 1023,2 20 0 0,0
15.08.2018 10:00:00 17,7 16,4 18,1 20,6 3 2 7 4 NE 1023,0 20 0 0,0
15.08.2018 09:00:00 16,8 16,6 16,3 20,6 0 0 4 2 N 1022,9 20 0 0,0
15.08.2018 08:00:00 16,0 15,8 15,2 20,7 0 0 3 2 N 1022,7 20 0 0,0
15.08.2018 07:00:00 15,0 14,8 13,2 20,8 0 0 4 2 N 1022,5 20 0 0,0
15.08.2018 06:00:00 13,9 13,6 9,4 21,0 0 0 4 2 N 1022,2 11 0 0,0
15.08.2018 05:00:00 13,9 13,4 9,5 21,3 0 0 0 0 N 1022,3 1,9 0 0,0
15.08.2018 04:00:00 15,2 14,7 10,4 21,4 0 0 5 3 N 1022,6 20 0 0,0
15.08.2018 03:00:00 15,8 15,0 11,2 21,6 3 2 4 2 SW 1022,7 8 0 0,0
15.08.2018 02:00:00 16,5 15,0 11,9 21,8 3 2 4 2 WNW 1022,8 20 0 0,0
15.08.2018 01:00:00 17,6 15,2 15,2 22,0 4 2 9 5 NE 1022,7 20 0 0,0
15.08.2018 00:00:00 18,8 15,7 14,4 22,1 5 3 8 5 NNW 1022,4 20 0 0,0
14.08.2018 23:00:00 19,1 15,0 15,1 22,3 4 2 15 8 WNW 1022,1 20 0 0,0
14.08.2018 22:00:00 20,7 14,8 18,3 22,4 5 3 8 4 WSW 1021,4 20 0 0,0
14.08.2018 21:00:00 22,2 14,8 21,4 22,4 5 3 10 5 WSW 1020,9 20 0 0,0
14.08.2018 20:00:00 23,4 14,4 23,0 22,3 7 4 16 9 W 1020,7 20 29 0,0
14.08.2018 19:00:00 24,2 14,3 23,9 22,2 10 6 21 11 WNW 1020,8 20 51 0,0
14.08.2018 18:00:00 24,3 15,2 25,4 22,0 10 6 25 14 NW 1021,2 20 34 0,0
14.08.2018 17:00:00 22,4 15,0 24,4 21,9 13 7 22 12 WNW 1021,3 20 0 0,0
14.08.2018 16:00:00 21,9 14,8 23,8 21,6 14 7 22 12 WNW 1021,5 20 7 0,0
14.08.2018 15:00:00 22,1 14,7 23,4 21,4 11 6 22 12 W 1021,3 20 16 0,0
14.08.2018 14:00:00 20,6 14,7 22,6 21,2 15 8 23 12 WNW 1021,3 20 14 0,0
14.08.2018 13:00:00 20,5 14,4 23,0 20,9 11 6 19 10 W 1020,9 20 37 0,0
14.08.2018 12:00:00 20,0 14,6 20,2 20,7 8 5 18 10 WNW 1021,1 20 16 0,0
14.08.2018 11:00:00 18,1 14,6 19,8 20,7 7 4 20 11 W 1020,9 20 19 0,0
14.08.2018 10:00:00 16,8 14,8 16,3 20,7 9 5 17 9 W 1020,5 20 3 0,0
14.08.2018 09:00:00 15,9 14,4 15,9 20,8 9 5 19 10 NW 1020,1 20 0 0,0
14.08.2018 08:00:00 15,7 14,2 15,3 20,9 8 4 14 7 NW 1019,4 20 0 0,0
14.08.2018 07:00:00 15,3 14,3 14,9 21,0 6 3 13 7 WNW 1018,6 20 0 0,0
14.08.2018 06:00:00 15,0 14,2 14,3 21,1 9 5 16 9 NW 1018,2 20 0 0,0
14.08.2018 05:00:00 14,6 14,0 11,1 21,3 6 3 11 6 NW 1017,8 20 0 0,0
14.08.2018 04:00:00 14,2 13,4 9,7 21,5 6 3 8 4 W 1017,4 20 0 0,0
14.08.2018 03:00:00 14,9 13,6 10,9 21,7 4 2 9 5 NW 1017,0 20 0 0,0
14.08.2018 02:00:00 16,2 14,0 14,8 21,9 6 3 12 7 NW 1016,7 20 0 0,0
14.08.2018 01:00:00 17,2 14,5 15,3 22,1 5 3 12 7 WNW 1016,1 20 0 0,0
14.08.2018 00:00:00 18,7 15,8 17,7 22,3 8 4 18 10 NW 1015,5 20 0 0,0
13.08.2018 23:00:00 19,9 16,1 19,3 22,4 10 5 27 15 WNW 1014,8 20 0 0,0
13.08.2018 22:00:00 20,6 15,6 20,1 22,5 15 8 28 15 W 1013,9 20 0 0,0
13.08.2018 21:00:00 21,6 15,2 21,2 22,5 15 8 31 17 W 1013,1 20 24 0,0
13.08.2018 20:00:00 22,3 16,1 22,4 22,5 10 5 29 16 WNW 1012,5 20 2 0,0
13.08.2018 19:00:00 22,7 16,0 23,4 22,5 12 7 29 16 WNW 1012,3 20 18 0,0
13.08.2018 18:00:00 22,5 15,8 23,7 22,4 19 10 30 16 WNW 1012,2 20 5 0,0
13.08.2018 17:00:00 23,8 16,1 25,4 22,3 13 7 28 15 W 1012,0 20 25 0,0
13.08.2018 16:00:00 23,2 15,8 23,8 22,1 13 7 26 14 W 1012,1 20 6 0,0
13.08.2018 15:00:00 21,2 16,2 21,7 21,9 11 6 23 12 WNW 1012,3 20 3 0,0
13.08.2018 14:00:00 23,3 16,3 24,5 21,6 10 5 24 13 W 1011,9 20 19 0,0
13.08.2018 13:00:00 21,9 16,2 24,6 21,4 14 8 27 15 WSW 1012,2 20 28 0,0
13.08.2018 12:00:00 20,7 16,7 17,9 21,3 13 7 24 13 WSW 1012,3 20 27 0,4
13.08.2018 11:00:00 19,6 16,4 20,1 21,3 10 5 21 11 WSW 1012,1 20 8 0,0
13.08.2018 10:00:00 19,1 16,7 18,3 21,2 11 6 21 11 W 1011,6 20 11 0,0
13.08.2018 09:00:00 17,9 17,1 17,0 21,3 9 5 18 10 WSW 1011,5 20 5 0,0
13.08.2018 08:00:00 17,2 16,4 16,9 21,4 10 5 22 12 SW 1011,1 19 0 0,0
13.08.2018 07:00:00 17,1 16,5 16,5 21,5 10 5 22 12 SW 1010,6 20 0 0,2
13.08.2018 06:00:00 17,2 16,4 16,8 21,6 8 4 17 9 SSW 1010,8 3,4 0 0,6
13.08.2018 05:00:00 17,2 16,2 16,5 21,7 7 4 15 8 SSW 1010,8 20 0 0,0
13.08.2018 04:00:00 17,2 16,2 16,5 21,8 8 4 18 10 SW 1010,8 20 0 0,0
13.08.2018 03:00:00 17,5 16,4 16,5 22,0 8 5 19 10 WSW 1010,5 20 0 0,0
13.08.2018 02:00:00 17,6 16,3 16,9 22,2 10 6 24 13 WSW 1010,6 20 0 0,0
13.08.2018 01:00:00 17,6 16,5 16,9 22,4 13 7 25 14 WSW 1010,6 20 0 0,0
13.08.2018 00:00:00 18,7 17,2 17,7 22,5 10 5 28 15 WSW 1010,3 20 0 0,0
12.08.2018 23:00:00 19,4 17,7 18,1 22,7 12 7 21 11 SSW 1010,3 20 0 0,0
12.08.2018 22:00:00 19,7 17,3 18,1 22,8 10 6 16 9 SSW 1010,3 16 0 0,2
12.08.2018 21:00:00 20,1 17,7 18,1 22,9 7 4 15 8 SW 1010,0 19 0 1,6
12.08.2018 20:00:00 23,4 14,7 23,5 22,9 8 4 22 12 WNW 1010,0 20 0 0,0
12.08.2018 19:00:00 25,1 13,3 26,0 22,9 11 6 28 15 W 1010,6 20 10 0,0
12.08.2018 18:00:00 25,3 15,9 25,4 22,8 11 6 27 15 W 1010,5 20 3 0,0
12.08.2018 17:00:00 25,0 15,9 26,1 22,7 18 10 29 16 W 1011,0 20 0 0,0
12.08.2018 16:00:00 27,2 14,6 28,8 22,4 16 9 37 20 WSW 1011,3 20 9 0,0
12.08.2018 15:00:00 27,6 14,6 29,6 22,0 20 11 50 27 SW 1011,9 20 29 0,0
12.08.2018 14:00:00 28,0 14,3 30,5 21,6 18 10 35 19 SSW 1012,2 20 37 0,0
12.08.2018 13:00:00 27,8 13,7 30,0 21,3 16 9 32 18 SSW 1012,7 20 48 0,0
12.08.2018 12:00:00 26,6 13,3 28,9 21,0 13 7 24 13 S 1013,2 20 54 0,0
12.08.2018 11:00:00 23,9 13,4 25,4 20,9 9 5 16 9 S 1013,5 20 50 0,0
12.08.2018 10:00:00 20,6 13,1 18,2 20,9 8 4 19 10 SE 1014,0 20 38 0,0
12.08.2018 09:00:00 17,6 12,3 17,1 21,0 10 5 21 12 SE 1014,6 20 24 0,0
12.08.2018 08:00:00 17,3 12,0 15,8 21,2 9 5 16 8 SE 1015,0 20 31 0,0
12.08.2018 07:00:00 16,6 11,7 15,0 21,4 8 4 14 8 SE 1015,4 20 0 0,0
12.08.2018 06:00:00 16,3 12,5 14,4 21,5 6 3 13 7 SE 1015,7 20 0 0,0
12.08.2018 05:00:00 16,7 12,6 14,8 21,7 5 3 9 5 SE 1016,5 20 0 0,0
12.08.2018 04:00:00 17,0 13,5 14,7 21,9 5 3 13 7 SE 1017,2 20 0 0,0
12.08.2018 03:00:00 17,8 14,1 14,9 22,1 4 2 9 5 SSE 1017,8 20 0 0,0
12.08.2018 02:00:00 18,7 13,5 14,5 22,3 6 3 9 5 SE 1018,6 20 0 0,0
12.08.2018 01:00:00 19,1 13,7 14,5 22,6 4 2 8 4 SE 1019,3 20 0 0,0
12.08.2018 00:00:00 19,9 13,4 14,4 22,8 5 3 8 4 SE 1019,6 20 0 0,0

tt = Température de l'air
td = dewpoint
tt 5cm = Température de l'air 5cm
tt -20cm = Température de l'air -20cm
ff = Vitesse du vent
fx = gusts
dd = Direction du vent
ppp = reduced air pressure
vv = visibility
sd = Ensoleillement
rr = Quantités de précipitations

stations d'obs. à proximité